N5077J LRIA-LUKK

Flight info

Callsign N5077J
Flight time 0h 27m
Altitude 3500
Route /
Aircraft C310/L-SDFGR/S

Departure

Time 2026-05-06 16:29
Airport Iaşi International Airport (LRIA)

Arrival

Time 2026-05-06 16:57
Airport Chişinău International Airport (LUKK)
Time Latitude Longitude Altitude Speed Heading
2026-05-06 16:18 47.17371 27.62094 366 ft 0 kts 57°
2026-05-06 16:18 47.17371 27.62093 366 ft 0 kts 57°
2026-05-06 16:24 47.17371 27.62092 366 ft 0 kts 57°
2026-05-06 16:25 47.17372 27.62094 366 ft 1 kts 57°
2026-05-06 16:25 47.17393 27.62145 366 ft 11 kts 59°
2026-05-06 16:26 47.17440 27.62150 366 ft 12 kts 329°
2026-05-06 16:26 47.17541 27.62064 367 ft 21 kts 335°
2026-05-06 16:26 47.17693 27.61954 367 ft 15 kts 333°
2026-05-06 16:26 47.17743 27.61920 366 ft 7 kts
2026-05-06 16:27 47.17776 27.61977 365 ft 8 kts 63°
2026-05-06 16:27 47.17800 27.62044 364 ft 7 kts 62°
2026-05-06 16:27 47.17822 27.62110 366 ft 7 kts 64°
2026-05-06 16:27 47.17851 27.62191 361 ft 11 kts 60°
2026-05-06 16:28 47.17826 27.62281 359 ft 13 kts 159°
2026-05-06 16:28 47.17664 27.62418 353 ft 51 kts 148°
2026-05-06 16:28 47.17262 27.62777 347 ft 88 kts 149°
2026-05-06 16:28 47.16718 27.63288 680 ft 93 kts 148°
2026-05-06 16:29 47.16151 27.63916 895 ft 111 kts 142°
2026-05-06 16:29 47.15662 27.64815 1152 ft 127 kts 109°
2026-05-06 16:29 47.15579 27.66259 1153 ft 154 kts 95°
2026-05-06 16:29 47.15475 27.67914 1131 ft 170 kts 99°
2026-05-06 16:30 47.15352 27.69655 1103 ft 175 kts 99°
2026-05-06 16:30 47.15269 27.70853 1111 ft 175 kts 99°
2026-05-06 16:30 47.15143 27.73046 1728 ft 146 kts 98°
2026-05-06 16:30 47.15082 27.74458 2189 ft 133 kts 98°
2026-05-06 16:31 47.15025 27.75779 2581 ft 127 kts 98°
2026-05-06 16:31 47.14985 27.77067 2924 ft 126 kts 97°
2026-05-06 16:31 47.14938 27.78352 3251 ft 129 kts 98°
2026-05-06 16:31 47.14855 27.79735 3396 ft 144 kts 99°
2026-05-06 16:32 47.14737 27.81263 3467 ft 159 kts 100°
2026-05-06 16:32 47.14598 27.82953 3489 ft 172 kts 100°
2026-05-06 16:32 47.14446 27.84740 3492 ft 180 kts 100°
2026-05-06 16:32 47.14286 27.86583 3493 ft 184 kts 100°
2026-05-06 16:33 47.14124 27.88436 3487 ft 181 kts 100°
2026-05-06 16:33 47.13982 27.90260 3495 ft 179 kts 98°
2026-05-06 16:33 47.13873 27.92053 3497 ft 179 kts 98°
2026-05-06 16:34 47.13683 27.95734 3502 ft 182 kts 97°
2026-05-06 16:34 47.13589 27.97604 3511 ft 185 kts 97°
2026-05-06 16:34 47.13501 27.99486 3504 ft 185 kts 96°
2026-05-06 16:34 47.13419 28.01378 3512 ft 186 kts 96°
2026-05-06 16:35 47.13344 28.03277 3525 ft 187 kts 96°
2026-05-06 16:35 47.13266 28.05202 3520 ft 189 kts 96°
2026-05-06 16:35 47.13191 28.07116 3525 ft 187 kts 96°
2026-05-06 16:35 47.13106 28.09024 3519 ft 187 kts 97°
2026-05-06 16:36 47.13008 28.10919 3512 ft 185 kts 97°
2026-05-06 16:36 47.12907 28.12801 3518 ft 185 kts 97°
2026-05-06 16:36 47.12804 28.14681 3519 ft 184 kts 97°
2026-05-06 16:36 47.12700 28.16553 3515 ft 183 kts 97°
2026-05-06 16:37 47.12601 28.18381 3516 ft 181 kts 97°
2026-05-06 16:37 47.12498 28.20218 3526 ft 180 kts 97°
2026-05-06 16:37 47.12392 28.22041 3515 ft 178 kts 97°
2026-05-06 16:37 47.12278 28.23833 3505 ft 175 kts 98°
2026-05-06 16:38 47.12166 28.25601 3512 ft 173 kts 98°
2026-05-06 16:38 47.12050 28.27362 3531 ft 173 kts 98°
2026-05-06 16:38 47.11934 28.29127 3531 ft 174 kts 98°
2026-05-06 16:38 47.11816 28.30905 3523 ft 175 kts 98°
2026-05-06 16:39 47.11697 28.32669 3521 ft 175 kts 98°
2026-05-06 16:39 47.11572 28.34460 3528 ft 176 kts 98°
2026-05-06 16:39 47.11447 28.36250 3519 ft 176 kts 98°
2026-05-06 16:39 47.11319 28.38038 3543 ft 177 kts 98°
2026-05-06 16:40 47.11191 28.39840 3522 ft 177 kts 98°
2026-05-06 16:40 47.11067 28.41645 3529 ft 178 kts 98°
2026-05-06 16:40 47.10942 28.43453 3520 ft 178 kts 98°
2026-05-06 16:40 47.10819 28.45230 3517 ft 177 kts 98°
2026-05-06 16:41 47.10695 28.47022 3530 ft 176 kts 98°
2026-05-06 16:41 47.10561 28.48807 3514 ft 176 kts 98°
2026-05-06 16:41 47.10415 28.50576 3516 ft 174 kts 99°
2026-05-06 16:41 47.10266 28.52330 3521 ft 172 kts 99°
2026-05-06 16:42 47.10115 28.54068 3517 ft 170 kts 98°
2026-05-06 16:42 47.09966 28.55791 3536 ft 170 kts 99°
2026-05-06 16:42 47.09818 28.57516 3552 ft 172 kts 99°
2026-05-06 16:42 47.09669 28.59275 3562 ft 175 kts 99°
2026-05-06 16:43 47.09517 28.61058 3539 ft 177 kts 99°
2026-05-06 16:43 47.09360 28.62864 3530 ft 179 kts 99°
2026-05-06 16:43 47.09202 28.64671 3524 ft 180 kts 99°
2026-05-06 16:43 47.09042 28.66489 3514 ft 180 kts 99°
2026-05-06 16:44 47.08879 28.68326 3513 ft 179 kts 99°
2026-05-06 16:44 47.08721 28.70105 3520 ft 178 kts 99°
2026-05-06 16:44 47.08564 28.71919 3513 ft 179 kts 99°
2026-05-06 16:44 47.08407 28.73738 3499 ft 179 kts 99°
2026-05-06 16:45 47.08248 28.75554 3504 ft 180 kts 99°
2026-05-06 16:45 47.08090 28.77379 3496 ft 180 kts 99°
2026-05-06 16:45 47.07933 28.79208 3497 ft 181 kts 98°
2026-05-06 16:45 47.07840 28.81058 3493 ft 181 kts 95°
2026-05-06 16:46 47.07788 28.82884 3488 ft 181 kts 93°
2026-05-06 16:46 47.07750 28.84722 3493 ft 180 kts 93°
2026-05-06 16:46 47.07716 28.86569 3498 ft 181 kts 93°
2026-05-06 16:46 47.07688 28.88416 3499 ft 181 kts 92°
2026-05-06 16:47 47.07659 28.90269 3497 ft 182 kts 93°
2026-05-06 16:47 47.07589 28.92103 3488 ft 181 kts 105°
2026-05-06 16:47 47.06971 28.93693 3497 ft 178 kts 129°
2026-05-06 16:47 47.06184 28.95095 3494 ft 178 kts 133°
2026-05-06 16:48 47.05373 28.96443 3493 ft 178 kts 133°
2026-05-06 16:48 47.04540 28.97782 3494 ft 177 kts 135°
2026-05-06 16:48 47.03700 28.99103 3491 ft 177 kts 135°
2026-05-06 16:48 47.02880 29.00372 3485 ft 176 kts 135°
2026-05-06 16:49 47.02016 29.01707 3495 ft 175 kts 135°
2026-05-06 16:49 47.01174 29.02973 3500 ft 175 kts 136°
2026-05-06 16:49 47.00308 29.04229 3499 ft 175 kts 137°
2026-05-06 16:49 46.99441 29.05489 3498 ft 175 kts 137°
2026-05-06 16:50 46.98572 29.06739 3497 ft 175 kts 137°
2026-05-06 16:50 46.97695 29.07983 3509 ft 176 kts 137°
2026-05-06 16:50 46.96861 29.09177 3428 ft 163 kts 136°
2026-05-06 16:50 46.96354 29.09990 3243 ft 163 kts 134°
2026-05-06 16:51 46.95324 29.11539 2914 ft 151 kts 136°
2026-05-06 16:51 46.94612 29.12585 2652 ft 140 kts 137°
2026-05-06 16:51 46.93877 29.13381 2494 ft 121 kts 167°
2026-05-06 16:51 46.93130 29.13105 2221 ft 120 kts 230°
2026-05-06 16:52 46.92928 29.11868 1890 ft 130 kts 265°
2026-05-06 16:52 46.92942 29.10672 1928 ft 105 kts 268°
2026-05-06 16:52 46.92979 29.09679 1762 ft 99 kts 268°
2026-05-06 16:52 46.93025 29.08673 1560 ft 95 kts 268°
2026-05-06 16:53 46.93057 29.07707 1552 ft 96 kts 263°
2026-05-06 16:53 46.93045 29.06715 1553 ft 101 kts 263°
2026-05-06 16:53 46.93029 29.05688 1499 ft 99 kts 265°
2026-05-06 16:53 46.93025 29.04730 1435 ft 90 kts 261°
2026-05-06 16:54 46.92999 29.03840 1375 ft 86 kts 260°
2026-05-06 16:54 46.92974 29.02991 1303 ft 83 kts 262°
2026-05-06 16:54 46.92957 29.02119 1245 ft 88 kts 262°
2026-05-06 16:54 46.92932 29.01188 1165 ft 96 kts 262°
2026-05-06 16:55 46.92892 29.00200 1046 ft 96 kts 262°
2026-05-06 16:55 46.92902 28.99257 761 ft 88 kts 266°
2026-05-06 16:55 46.92899 28.98676 703 ft 86 kts 261°
2026-05-06 16:55 46.92874 28.97833 614 ft 82 kts 261°
2026-05-06 16:56 46.92842 28.97000 532 ft 83 kts 259°
2026-05-06 16:56 46.92845 28.96149 428 ft 83 kts 261°
2026-05-06 16:56 46.92819 28.95308 307 ft 79 kts 262°
2026-05-06 16:56 46.92788 28.94641 303 ft 53 kts 279°
2026-05-06 16:57 46.92797 28.94074 319 ft 33 kts 269°
2026-05-06 16:57 46.92793 28.93835 326 ft 40 kts 269°
2026-05-06 16:57 46.92791 28.93469 336 ft 24 kts 295°
2026-05-06 16:57 46.92887 28.93414 336 ft 5 kts 354°
2026-05-06 16:58 46.92890 28.93414 334 ft 0 kts 354°
2026-05-06 16:58 46.92920 28.93412 335 ft 10 kts 358°
2026-05-06 16:59 46.93011 28.93414 329 ft 14 kts
2026-05-06 16:59 46.93105 28.93430 332 ft 12 kts
2026-05-06 16:59 46.93182 28.93442 331 ft 11 kts
2026-05-06 16:59 46.93269 28.93458 330 ft 12 kts 12°
2026-05-06 17:00 46.93350 28.93475 330 ft 11 kts
2026-05-06 17:00 46.93427 28.93470 328 ft 13 kts 300°
2026-05-06 17:00 46.93435 28.93346 333 ft 12 kts 277°
2026-05-06 17:00 46.93445 28.93219 336 ft 13 kts 276°
2026-05-06 17:01 46.93467 28.93128 338 ft 9 kts 23°
2026-05-06 17:01 46.93490 28.93167 337 ft 3 kts 41°
2026-05-06 17:01 46.93498 28.93180 338 ft 2 kts 54°
2026-05-06 17:01 46.93499 28.93183 338 ft 0 kts 54°